This demonstration page uses our WeatherBlox Daily Observations layout. Learn more.

Left ArrowRight Arrow

Hourly Observations for October 24, 2015

Temp ( °F °C ) Dew Point ( °F °C ) Humidity (%) Winds ( mph kmh ) Pressure ( in mb ) Visibility ( mi km ) Precip ( " mm )
12:51 am 00:51 Clear 55 12.8 48 8.9 77 77 NNE 3 6 29.91 1013 10 16 N/A
1:51 am 01:51 Clear 53 11.7 48 8.9 83 83 ESE 6 9 29.91 1013 10 16 N/A
2:51 am 02:51 Clear 53 11.7 47 8.3 80 80 N N/A 29.91 1013 10 16 N/A
3:51 am 03:51 Clear 50 10 46 7.8 86 86 ESE 6 9 29.92 1013 10 16 N/A
4:51 am 04:51 Clear 51 10.6 45 7.2 80 80 SSE 5 7 29.93 1013 10 16 N/A
5:51 am 05:51 Clear 52 11.1 44 6.7 75 75 SSE 8 13 29.94 1014 10 16 N/A
6:51 am 06:51 Sunny 53 11.7 43 6.1 69 69 SE 10 17 29.97 1015 10 16 N/A
7:51 am 07:51 Sunny 61 16.1 43 6.1 52 52 SE 12 19 29.98 1015 10 16 N/A
8:51 am 08:51 Sunny 64 17.8 43 6.1 46 46 SE 13 20 29.99 1016 10 16 N/A
9:51 am 09:51 Sunny 68 20 42 5.6 39 39 SE 10 17 29.99 1016 10 16 N/A
10:51 am 10:51 Sunny 71 21.7 43 6.1 36 36 SSE 5 7 29.98 1015 10 16 N/A
11:51 am 11:51 Sunny 75 23.9 43 6.1 32 32 SW 7 11 29.97 1015 10 16 N/A
12:51 pm 12:51 Sunny 78 25.6 42 5.6 28 28 SE 8 13 29.93 1014 10 16 N/A
1:51 pm 13:51 Mostly Sunny 79 26.1 42 5.6 27 27 VRB 7 11 29.91 1013 10 16 N/A
2:51 pm 14:51 Mostly Sunny 80 26.7 40 4.4 24 24 ESE 13 20 29.89 1012 10 16 N/A
3:51 pm 15:51 Sunny 80 26.7 41 5 25 25 SE 14 22 29.91 1013 10 16 N/A
4:51 pm 16:51 Sunny 78 25.6 41 5 27 27 SSE 12 19 29.93 1013 10 16 N/A
5:51 pm 17:51 Clear 74 23.3 42 5.6 32 32 SE 12 19 29.95 1014 10 16 N/A
6:51 pm 18:51 Clear 71 21.7 43 6.1 36 36 ESE 10 17 29.97 1015 10 16 N/A
7:51 pm 19:51 Clear 68 20 44 6.7 42 42 E 8 13 29.99 1016 10 16 N/A
8:51 pm 20:51 Clear 67 19.4 44 6.7 44 44 ESE 8 13 30.00 1016 10 16 N/A
9:51 pm 21:51 Clear 65 18.3 45 7.2 49 49 E 7 11 30.02 1017 10 16 N/A
10:51 pm 22:51 Clear 64 17.8 47 8.3 54 54 E 9 15 30.03 1017 10 16 N/A
11:51 pm 23:51 Clear 65 18.3 47 8.3 52 52 SSE 10 17 30.02 1017 10 16 N/A

Powered by AerisWeather